Location: D�rnast
(49.6426°N, 11.9755°E)
Time: 12:48:06
(UTC+00:00)

Cosmos 1844 Rocket - Pass Details

Date: 24 January 2021
Orbit: 825 x 843 km, 71.0° (Epoch: 26 February)

Event Time Altitude Azimuth Distance (km) Brightness Sun altitude
Rises 18:44:56 0° 246° (WSW) 3,394 6.8 -27.3°
Reaches altitude 10° 18:47:45 10° 258° (WSW) 2,461 6.0 -27.8°
Maximum altitude 18:52:30 27° 316° (NW) 1,562 4.5 -28.6°
Enters shadow 18:55:59 16° 4° (N) 2,089 4.7 -29.1°
